Weather History for Miles City, MT

Change the Weather History Date:

Wednesday, May 13, 2009

  Actual Average Record
Temperature  
Mean Temperature 41 °F 55 °F  
Max Temperature 49 °F 68 °F 97 °F (2001)
Min Temperature 32 °F 42 °F 17 °F (2004)
Degree Days  
Heating Degree Days 24 11  
Month to date heating degree days 187 160  
Since 1 July heating degree days 7356 7406  
Cooling Degree Days 0 0  
Month to date cooling degree days 0 0  
Year to date cooling degree days 0 1  
Moisture  
Dew Point 30 °F    
Average Humidity 66    
Maximum Humidity 89    
Minimum Humidity 42    
Precipitation  
Precipitation 0.07 in 0.06 in 0.88 in (1962)
Month to date precipitation 0.99 0.82  
Year to date precipitation 2.79 3.34  
Sea Level Pressure  
Sea Level Pressure 29.88 in    
Wind  
Wind Speed 20 mph (WNW)    
Max Wind Speed 41 mph    
Max Gust Speed 52 mph    
Visibility 7 miles    
Events Fog , Rain , Snow    
T = Trace of Precipitation, MM = Missing Value Source: NWS Daily Summary

Daily Weather History Graph

Daily Weather History Graph

Search for Another Location

Airport:

Trip Planner

Search our weather history database for the weather conditions in past years. The results will help you decide how hot, cold, wet, or windy it might be!

Date:

Astronomy

May. 13, 2009 Rise Set
Actual Time 5:32 AM MDT 8:28 PM MDT
Civil Twilight 4:56 AM MDT 9:03 PM MDT
Nautical Twilight 4:11 AM MDT 9:49 PM MDT
Astronomical Twilight 3:18 AM MDT 10:43 PM MDT
Moon 12:15 AM MDT (5/13) 8:37 AM MDT (5/13)
Length of Visible Light 16h 06m
Length of Day
14h 56m
Waning Gibbous, 81% of the Moon is Illuminated
May 13
Waning Gibbous
May 17
Last Quarter
May 24
New
May 30
First Quarter
Jun 7
Full

Hourly Weather History & Observations

Time (MDT) Temp. Windchill Dew Point Humidity Pressure Visibility Wind Dir Wind Speed Gust Speed Precip Events Conditions
12:53 AM 48.9 °F - 30.9 °F 50% 29.62 in 10.0 mi West 18.4 mph - N/A   Scattered Clouds
1:53 AM 48.0 °F - 28.9 °F 48% 29.65 in 10.0 mi West 15.0 mph - N/A   Mostly Cloudy
2:53 AM 46.0 °F 39.9 °F 24.1 °F 42% 29.68 in 10.0 mi West 13.8 mph - N/A   Overcast
3:53 AM 42.1 °F 33.9 °F 27.0 °F 55% 29.70 in 10.0 mi WSW 17.3 mph - N/A   Clear
4:53 AM 42.1 °F 31.9 °F 24.1 °F 49% 29.69 in 10.0 mi West 26.5 mph 34.5 mph N/A   Clear
5:53 AM 41.0 °F 30.7 °F 25.0 °F 53% 29.71 in 10.0 mi West 25.3 mph 31.1 mph N/A   Scattered Clouds
6:37 AM 39.2 °F 28.5 °F 30.2 °F 70% 29.70 in 10.0 mi West 24.2 mph 36.8 mph N/A   Mostly Cloudy
6:48 AM 39.2 °F 28.0 °F 33.8 °F 81% 29.71 in 10.0 mi West 26.5 mph 38.0 mph N/A   Overcast
6:53 AM 39.9 °F 28.2 °F 33.1 °F 77% 29.73 in 10.0 mi West 31.1 mph 39.1 mph 0.00 in Rain Light Rain
7:00 AM 39.2 °F 27.4 °F 33.8 °F 81% 29.72 in 10.0 mi West 29.9 mph 40.3 mph 0.00 in Rain Light Rain
7:18 AM 37.4 °F 25.9 °F 33.8 °F 87% 29.72 in 6.0 mi West 25.3 mph 34.5 mph 0.01 in Rain Light Rain
7:53 AM 39.0 °F 28.3 °F 34.0 °F 82% 29.75 in 7.0 mi West 24.2 mph 38.0 mph 0.02 in Rain Light Rain
8:35 AM 35.6 °F 22.1 °F 32.0 °F 87% 29.75 in 2.5 mi West 32.2 mph 47.2 mph 0.00 in Snow Light Snow
8:51 AM 35.6 °F 22.1 °F 30.2 °F 81% 29.76 in 0.8 mi WNW 32.2 mph 44.9 mph 0.01 in Snow Light Snow
8:53 AM 35.1 °F 21.6 °F 30.9 °F 85% 29.80 in 0.5 mi WNW 31.1 mph 44.9 mph 0.01 in Fog , Snow Snow
8:56 AM 33.8 °F 20.3 °F 30.2 °F 87% 29.77 in 0.2 mi NW 28.8 mph 44.9 mph 0.01 in Fog , Snow Snow
9:11 AM 33.8 °F 22.8 °F 30.2 °F 87% 29.78 in 1.0 mi WNW 18.4 mph 29.9 mph 0.01 in Snow Light Snow
9:15 AM 35.6 °F 25.2 °F 30.2 °F 81% 29.79 in 4.0 mi WNW 18.4 mph 25.3 mph 0.01 in Snow Light Snow
9:24 AM 35.6 °F 23.7 °F 30.2 °F 81% 29.79 in 9.0 mi NW 24.2 mph 32.2 mph 0.01 in   Mostly Cloudy
9:53 AM 36.0 °F 23.9 °F 28.9 °F 76% 29.86 in 10.0 mi NW 25.3 mph 34.5 mph 0.01 in   Overcast
10:14 AM 35.6 °F 23.2 °F 28.4 °F 75% 29.84 in 10.0 mi NW 26.5 mph 35.7 mph N/A   Overcast
10:29 AM 35.6 °F 23.4 °F 26.6 °F 70% 29.85 in 10.0 mi NW 25.3 mph 39.1 mph N/A   Overcast
10:53 AM 37.0 °F 24.1 °F 26.1 °F 65% 29.90 in 10.0 mi NW 32.2 mph 40.3 mph N/A   Overcast
11:46 AM 35.6 °F 22.3 °F 24.8 °F 65% 29.92 in 10.0 mi NW 31.1 mph 47.2 mph N/A   Overcast
11:53 AM 35.1 °F 20.0 °F 26.1 °F 70% 29.96 in 9.0 mi NW 40.3 mph 49.5 mph 0.00 in   Overcast
12:01 PM 33.8 °F 19.4 °F 26.6 °F 75% 29.92 in 1.8 mi NW 33.4 mph 50.6 mph 0.00 in Snow Light Snow
12:05 PM 33.8 °F 19.9 °F 26.6 °F 75% 29.93 in 0.5 mi NW 31.1 mph 41.4 mph 0.00 in Snow Snow
12:08 PM 32.0 °F 18.4 °F 28.4 °F 87% 29.93 in 0.2 mi NW 26.5 mph 41.4 mph 0.00 in Fog , Snow Heavy Snow
12:22 PM 32.0 °F 18.6 °F 28.4 °F 87% 29.94 in 0.2 mi NW 25.3 mph 36.8 mph 0.02 in Fog , Snow Heavy Snow
12:53 PM 32.0 °F 19.2 °F 28.9 °F 88% 30.01 in 0.2 mi WNW 23.0 mph 31.1 mph 0.03 in Fog , Snow Snow
1:08 PM 33.8 °F 22.2 °F 28.4 °F 81% 29.97 in 0.5 mi NW 20.7 mph 35.7 mph 0.00 in Snow Snow
1:53 PM 34.0 °F 22.4 °F 30.0 °F 85% 30.03 in 0.5 mi WNW 20.7 mph 28.8 mph 0.00 in Fog , Snow Light Snow
2:06 PM 35.6 °F 24.0 °F 30.2 °F 81% 29.99 in 1.0 mi WNW 23.0 mph 29.9 mph 0.00 in Snow Light Snow
2:14 PM 35.6 °F 23.2 °F 30.2 °F 81% 29.99 in 3.0 mi WNW 26.5 mph 33.4 mph 0.00 in Snow Light Snow
2:23 PM 35.6 °F 23.0 °F 30.2 °F 81% 29.99 in 7.0 mi NW 27.6 mph 38.0 mph 0.00 in   Overcast
2:53 PM 37.0 °F 24.9 °F 30.0 °F 76% 30.04 in 10.0 mi NW 27.6 mph 35.7 mph 0.00 in   Overcast
3:21 PM 39.2 °F 27.4 °F 30.2 °F 70% 30.00 in 10.0 mi WNW 29.9 mph 36.8 mph N/A   Overcast
3:53 PM 44.1 °F 33.8 °F 33.1 °F 65% 30.04 in 10.0 mi NW 31.1 mph 36.8 mph N/A   Mostly Cloudy
4:53 PM 46.0 °F 37.4 °F 33.1 °F 61% 30.04 in 10.0 mi NW 25.3 mph 32.2 mph N/A   Partly Cloudy
5:53 PM 48.0 °F - 33.1 °F 56% 30.06 in 10.0 mi NW 18.4 mph 27.6 mph N/A   Scattered Clouds
6:53 PM 48.0 °F - 32.0 °F 54% 30.05 in 10.0 mi NW 18.4 mph 27.6 mph N/A   Clear
7:53 PM 46.0 °F 40.6 °F 34.0 °F 63% 30.06 in 10.0 mi NNW 11.5 mph - N/A   Clear
8:53 PM 41.0 °F 39.0 °F 32.0 °F 70% 30.09 in 10.0 mi NNE 3.5 mph - N/A   Clear
9:53 PM 39.0 °F 34.8 °F 32.0 °F 76% 30.09 in 10.0 mi ESE 5.8 mph - N/A   Clear
10:53 PM 37.0 °F 34.5 °F 32.0 °F 82% 30.09 in 10.0 mi ESE 3.5 mph - N/A   Clear
11:53 PM 36.0 °F 31.1 °F 30.9 °F 82% 30.07 in 10.0 mi SSE 5.8 mph - N/A   Clear